This demonstration page uses our WeatherBlox Daily Observations layout. Learn more.

Left ArrowRight Arrow

Hourly Observations for September 28, 2015

Temp ( °F °C ) Dew Point ( °F °C ) Humidity (%) Winds ( mph kmh ) Pressure ( in mb ) Visibility ( mi km ) Precip ( " mm )
12:15 am 00:15 Cloudy 68 20 64 18 88 88 N 5 7 30.27 1025 10 16 0.00 0.00
12:35 am 00:35 Cloudy 68 20 64 18 88 88 N 3 6 30.27 1025 10 16 0.00 0.00
12:55 am 00:55 Cloudy 68 20 64 18 88 88 N 3 6 30.27 1025 10 16 0.00 0.00
1:15 am 01:15 Cloudy 68 20 64 18 88 88 N 3 6 30.27 1025 10 16 0.00 0.00
1:35 am 01:35 Cloudy 68 20 64 18 88 88 N 3 6 30.27 1025 10 16 0.00 0.00
1:55 am 01:55 Cloudy 68 20 64 18 88 88 N 3 6 30.27 1025 10 16 0.00 0.00
2:15 am 02:15 Cloudy 66 19 64 18 94 94 Calm 30.27 1025 10 16 0.00 0.00
2:35 am 02:35 Cloudy 66 19 64 18 94 94 Calm 30.27 1025 10 16 0.00 0.00
2:55 am 02:55 Cloudy 66 19 64 18 94 94 N 3 6 30.24 1024 10 16 0.00 0.00
3:15 am 03:15 Cloudy 66 19 64 18 94 94 N 5 7 30.24 1024 10 16 0.00 0.00
3:35 am 03:35 Cloudy 66 19 64 18 94 94 NNE 3 6 30.24 1024 10 16 0.00 0.00
3:55 am 03:55 Cloudy 64 18 64 18 100 100 NNE 3 6 30.24 1024 10 16 0.00 0.00
4:15 am 04:15 Cloudy 64 18 64 18 100 100 Calm 30.21 1023 10 16 0.00 0.00
4:35 am 04:35 Cloudy 64 18 64 18 100 100 Calm 30.21 1023 10 16 0.00 0.00
4:55 am 04:55 Cloudy 64 18 64 18 100 100 NNE 3 6 30.21 1023 10 16 0.00 0.00
5:15 am 05:15 Cloudy 64 18 64 18 100 100 Calm 30.21 1023 10 16 0.00 0.00
5:35 am 05:35 Cloudy 64 18 64 18 100 100 Calm 30.21 1023 10 16 0.00 0.00
5:55 am 05:55 Cloudy 64 18 64 18 100 100 Calm 30.21 1023 10 16 0.00 0.00
6:15 am 06:15 Cloudy 64 18 64 18 100 100 Calm 30.21 1023 7 11 0.00 0.00
6:35 am 06:35 Cloudy with Mist and Fog 64 18 64 18 100 100 Calm 30.21 1023 5 8 0.00 0.00
6:55 am 06:55 Cloudy with Mist and Fog 64 18 64 18 100 100 Calm 30.21 1023 3 5 0.00 0.00
7:15 am 07:15 Cloudy with Mist and Fog 64 18 64 18 100 100 Calm 30.21 1023 2 3 0.00 0.00
7:35 am 07:35 Cloudy with Mist and Fog 64 18 64 18 100 100 Calm 30.24 1024 1 2 0.00 0.00
7:55 am 07:55 Cloudy with Mist and Fog 64 18 64 18 100 100 Calm 30.24 1024 1 1 0.00 0.00
8:15 am 08:15 Cloudy with Fog 64 18 64 18 100 100 Calm 30.24 1024 1 1 0.00 0.00
8:35 am 08:35 Cloudy with Fog 64 18 64 18 100 100 Calm 30.24 1024 1 1 0.00 0.00
8:55 am 08:55 Cloudy with Fog 64 18 64 18 100 100 Calm 30.24 1024 1 1 0.00 0.00
9:15 am 09:15 Cloudy with Mist and Fog 64 18 64 18 100 100 Calm 30.24 1024 1 1 0.00 0.00
9:35 am 09:35 Cloudy with Mist and Fog 64 18 64 18 100 100 Calm 30.24 1024 1 2 0.00 0.00
9:55 am 09:55 Cloudy with Mist and Fog 66 19 66 19 100 100 Calm 30.24 1024 2 3 0.00 0.00
10:15 am 10:15 Cloudy with Mist and Fog 68 20 68 20 100 100 undefined N/A 30.24 1024 4 6 0.00 0.00
10:35 am 10:35 Cloudy with Mist and Fog 68 20 68 20 100 100 NE 5 7 30.24 1024 5 8 0.00 0.00
10:55 am 10:55 Cloudy 70 21 68 20 94 94 ESE 5 7 30.24 1024 7 11 0.00 0.00
11:15 am 11:15 Cloudy 72 22 68 20 88 88 ESE 3 6 30.21 1023 10 16 0.00 0.00
11:35 am 11:35 Cloudy 73 23 68 20 83 83 SSE 6 9 30.21 1023 10 16 0.00 0.00
11:55 am 11:55 Cloudy 73 23 68 20 83 83 SSE 6 9 30.21 1023 10 16 0.00 0.00
12:15 pm 12:15 Cloudy 75 24 68 20 78 78 SSE 5 7 30.21 1023 10 16 0.00 0.00
12:35 pm 12:35 Cloudy 79 26 70 21 74 74 S 8 13 30.21 1023 10 16 0.00 0.00
12:55 pm 12:55 Cloudy 77 25 70 21 79 79 S 8 13 30.18 1022 10 16 0.00 0.00
1:15 pm 13:15 Cloudy 79 26 70 21 74 74 S 9 15 30.18 1022 10 16 0.00 0.00
1:35 pm 13:35 Cloudy 79 26 70 21 74 74 SE 7 11 30.18 1022 10 16 0.00 0.00
1:55 pm 13:55 Mostly Cloudy 81 27 70 21 70 70 SE 9 15 30.15 1021 10 16 0.00 0.00
2:15 pm 14:15 Partly Cloudy 81 27 70 21 70 70 SSE 9 15 30.15 1021 10 16 0.00 0.00
2:35 pm 14:35 Mostly Cloudy 81 27 68 20 66 66 SSW 12 19 30.15 1021 10 16 0.00 0.00
2:55 pm 14:55 Cloudy 81 27 68 20 66 66 ESE 8 13 30.15 1021 10 16 0.00 0.00
3:15 pm 15:15 Cloudy 81 27 68 20 66 66 S 12 19 30.12 1020 10 16 0.00 0.00
3:35 pm 15:35 Cloudy 81 27 70 21 70 70 SE 7 11 30.12 1020 10 16 0.00 0.00
3:55 pm 15:55 Cloudy 79 26 70 21 74 74 SE 8 13 30.12 1020 10 16 0.00 0.00
4:15 pm 16:15 Cloudy 79 26 68 20 70 70 SE 9 15 30.12 1020 10 16 0.00 0.00
4:35 pm 16:35 Cloudy 77 25 70 21 79 79 SE 6 9 30.12 1020 10 16 0.00 0.00
4:55 pm 16:55 Cloudy 79 26 70 21 74 74 ESE 7 11 30.09 1019 10 16 0.00 0.00
5:15 pm 17:15 Partly Cloudy 79 26 70 21 74 74 SE 5 7 30.09 1019 10 16 0.00 0.00
5:35 pm 17:35 Mostly Cloudy 81 27 70 21 70 70 SE 7 11 30.09 1019 10 16 0.00 0.00
5:55 pm 17:55 Mostly Cloudy 81 27 68 20 66 66 SE 6 9 30.09 1019 10 16 0.00 0.00
6:15 pm 18:15 Cloudy 81 27 68 20 66 66 SSE 6 9 30.09 1019 10 16 0.00 0.00
6:35 pm 18:35 Mostly Cloudy 79 26 68 20 70 70 SSE 5 7 30.09 1019 10 16 0.00 0.00
6:55 pm 18:55 Mostly Cloudy 79 26 68 20 70 70 SSE 3 6 30.09 1019 10 16 0.00 0.00
7:15 pm 19:15 Partly Cloudy 77 25 70 21 79 79 SSW 12 19 30.09 1019 10 16 0.00 0.00
7:35 pm 19:35 Cloudy 77 25 70 21 79 79 S 6 9 30.09 1019 10 16 0.00 0.00
7:55 pm 19:55 Cloudy 77 25 70 21 79 79 S 3 6 30.12 1020 10 16 0.00 0.00
8:15 pm 20:15 Cloudy 73 23 70 21 89 89 Calm 30.12 1020 10 16 0.00 0.00
8:35 pm 20:35 Cloudy 77 25 70 21 79 79 SE 5 7 30.12 1020 10 16 0.00 0.00
8:55 pm 20:55 Cloudy 77 25 70 21 79 79 SE 3 6 30.12 1020 10 16 0.00 0.00
9:15 pm 21:15 Cloudy 77 25 70 21 79 79 SE 6 9 30.12 1020 10 16 0.00 0.00
9:35 pm 21:35 Partly Cloudy 75 24 70 21 83 83 SE 3 6 30.09 1019 10 16 0.00 0.00
9:55 pm 21:55 Clear 73 23 70 21 89 89 SSE 5 7 30.09 1019 10 16 0.00 0.00
10:15 pm 22:15 Mostly Cloudy 73 23 70 21 89 89 SSE 3 6 30.09 1019 10 16 0.00 0.00
10:35 pm 22:35 Cloudy 73 23 70 21 89 89 S 5 7 30.09 1019 10 16 0.00 0.00
10:55 pm 22:55 Mostly Cloudy 73 23 70 21 89 89 S 5 7 30.09 1019 10 16 0.00 0.00
11:15 pm 23:15 Cloudy 73 23 70 21 89 89 ESE 5 7 30.09 1019 10 16 0.00 0.00
11:35 pm 23:35 Cloudy 73 23 70 21 89 89 S 6 9 30.09 1019 10 16 0.00 0.00
11:55 pm 23:55 Cloudy 73 23 70 21 89 89 ESE 5 7 30.09 1019 10 16 0.00 0.00

Powered by AerisWeather